Overview Statistics Trail Chart Weather Telemetry Raw packets
 

This is the latest recevied weather packets stored in our database for station/object K5BOU. If no packets are shown the sender has not sent any weather packets the latest 10 day(s).

<< 71 72 73 74 75 76 77 >>
Time Temp. Humidity Pressure Rain* Wind** Luminosity Snow
1788155129 25° C 99% 1014.3 hPa 0 mm - 0 W/m² -
1788154828 25.56° C 99% 1014.1 hPa 0 mm - 0 W/m² -
1788154526 25° C 99% 1014.1 hPa 0 mm - 0 W/m² -
1788154222 25.56° C 99% 1014.4 hPa 0 mm - 0 W/m² -
1788153920 25.56° C 99% 1014.2 hPa 0 mm - 0 W/m² -
1788153615 25.56° C 98% 1014.2 hPa 0 mm - 0 W/m² -
1788153313 25.56° C 98% 1014.1 hPa 0 mm - 0 W/m² -
1788153013 25.56° C 97% 1014 hPa 0 mm - 0 W/m² -
1788152712 26.11° C 97% 1013.7 hPa 0 mm - 0 W/m² -
1788152411 26.11° C 96% 1013.9 hPa 0 mm - 0 W/m² -
1788152110 26.11° C 96% 1014.2 hPa 0 mm - 0 W/m² -
1788151806 26.67° C 96% 1014.1 hPa 0 mm - 0 W/m² -
1788151501 26.67° C 95% 1014.1 hPa 0 mm - 0 W/m² -
1788151196 26.67° C 95% 1014 hPa 0 mm - 0 W/m² -
1788150896 26.67° C 95% 1013.8 hPa 0 mm - 0 W/m² -
1788150591 26.67° C 94% 1013.8 hPa 0 mm - 0 W/m² -
1788150291 26.67° C 94% 1014 hPa 0 mm - 0 W/m² -
1788149991 26.67° C 94% 1013.7 hPa 0 mm - 0 W/m² -
1788149686 26.67° C 95% 1013.7 hPa 0 mm - 0 W/m² -
1788149380 26.67° C 94% 1013.8 hPa 0 mm - 0 W/m² -
1788149076 26.67° C 94% 1013.7 hPa 0 mm - 0 W/m² -
1788148773 26.67° C 94% 1013.7 hPa 0 mm - 0 W/m² -
1788148472 26.67° C 93% 1013.6 hPa 0 mm - 0 W/m² -
1788148167 26.67° C 93% 1013.7 hPa 0 mm - 0 W/m² -
1788147862 27.22° C 92% 1013.6 hPa 0 mm - 0 W/m² -

* Rain latest hour (hover to see other rain measurements)
** Current wind speed in m/s (hover to see current wind gust speed)